CAPE
16 18 15 12 9 8 6 6 6 4 5 6 7 8 8 23 0 0 0 0 0 0 0 0 0 0 0 0 13 34 27 2 1 3 3 0 0 0 0 0 0 13 83 210 719
10 11 14 20 14 8 8 8 10 17 11 12 11 11 14 15 0 0 0 0 0 0 0 0 0 0 0 1 0 1 2 5 5 13 5 1 0 0 0 0 0 0 317 545 791
0 5 1 0 12 3 3 6 6 2 9 18 9 10 21 0 0 0 4 0 0 0 0 0 0 0 0 0 0 0 0 0 0 1 0 1 0 0 0 0 0 0 4 953 1047
5 7 28 7 7 5 3 7 5 11 5 8 19 20 26 0 0 0 0 0 0 0 0 0 3 0 0 0 0 0 0 1 0 0 0 1 0 0 0 0 0 0 0 24 1134
4 30 16 6 4 2 1 7 6 6 8 10 18 26 15 1 0 0 0 0 0 0 0 0 0 0 0 0 0 0 0 0 0 0 0 0 0 3 0 0 0 0 0 0 229
24 18 22 13 0 0 3 3 7 8 9 15 10 27 17 0 0 0 0 0 0 0 0 0 0 0 0 1 0 0 0 0 0 0 0 0 0 0 0 0 0 0 0 0 0
11 8 20 10 7 14 1 2 5 7 12 17 17 28 5 0 0 0 0 0 0 0 0 0 0 0 0 0 0 0 0 0 0 0 0 0 0 0 0 0 0 0 0 0 0
0 0 7 2 9 8 1 15 14 17 21 16 15 23 7 0 0 0 0 0 0 0 0 0 0 9 13 1 0 1 4 0 0 0 0 0 0 0 0 0 0 0 1 0 0
15 15 23 19 19 21 23 16 15 7 0 0 2 4 0 0 0 0 0 0 0 0 0 0 3 0 12 6 1 0 0 0 0 0 0 0 0 0 0 0 0 0 1 0 0
27 20 20 15 6 13 26 14 0 0 0 0 0 0 0 0 0 0 0 0 0 0 3 5 7 2 1 7 0 0 0 0 0 0 0 0 0 0 0 24 3 0 0 0 0
24 19 19 9 21 27 0 0 0 0 0 0 0 0 0 0 0 0 0 0 4 1 0 4 1 0 0 0 0 0 0 0 0 0 0 0 0 0 0 0 32 0 0 0 0
2 5 4 10 28 0 0 0 0 0 0 0 0 0 0 0 0 0 0 0 2 1 1 0 0 0 0 0 0 0 0 0 0 0 0 0 0 0 0 1 4 3 0 0 0
6 4 4 10 3 0 0 0 0 0 0 0 0 0 0 0 0 0 0 1 0 0 0 0 0 0 0 1 1 0 0 0 0 0 7 0 0 0 0 1 21 13 1 0 0
0 6 7 3 0 0 0 0 0 0 0 0 0 0 0 0 0 0 0 0 0 0 0 1 0 0 0 0 0 0 0 0 0 0 1 1 3 0 0 5 14 2 0 0 0
4 3 11 0 0 0 0 0 0 0 0 0 0 0 0 0 0 0 0 2 3 4 0 0 0 1 1 0 0 0 0 0 0 0 0 13 4 5 12 7 1 0 0 0 1
0 8 0 0 0 0 0 0 0 0 0 0 0 0 0 0 0 0 0 3 0 0 0 0 1 0 0 0 0 0 1 1 2 0 7 0 0 0 0 0 1 0 0 1 0
0 0 0 0 0 0 0 0 0 0 0 0 0 0 0 0 0 0 1 0 0 0 0 0 0 3 3 0 5 0 0 0 0 0 0 2 0 0 0 0 0 0 2 2 1
0 0 0 0 0 0 0 0 0 0 0 0 0 0 0 0 0 0 0 0 0 0 0 0 0 0 1 1 0 0 0 0 1 0 0 0 0 0 2 0 0 0 2 3 2
0 0 0 0 0 0 0 0 0 0 0 0 0 0 0 0 0 0 0 0 0 0 0 0 0 0 0 0 5 0 0 0 0 0 0 0 0 0 1 4 0 0 0 1 2
0 0 0 0 0 0 0 0 0 0 0 0 0 0 0 0 0 0 0 0 0 0 0 0 0 0 0 0 1 0 0 0 0 0 0 0 0 0 0 1 2 1 0 2 3
0 0 0 0 0 0 0 0 0 0 0 0 0 1 0 0 0 0 0 0 0 0 0 0 0 0 0 0 0 0 0 0 0 0 0 0 0 0 0 0 1 1 1 0 1
0 0 0 0 0 0 0 0 0 0 0 0 1 0 0 0 0 0 0 0 0 1 0 0 0 0 0 0 0 0 0 0 0 0 0 0 0 1 0 0 0 1 1 1 0
0 0 0 0 0 0 0 0 0 0 0 0 0 0 0 0 0 0 0 0 0 0 0 0 0 0 0 0 0 0 0 0 0 0 0 0 0 0 0 0 0 0 1 0 1
0 0 0 0 0 0 0 0 0 0 0 0 0 0 0 0 0 0 0 0 0 0 0 0 1 0 0 0 0 0 0 0 0 0 0 0 0 0 0 0 0 0 1 0 0
0 0 0 0 0 0 0 0 0 0 0 0 0 0 0 1 0 0 0 0 0 0 0 0 0 0 0 0 0 0 0 0 0 0 0 0 0 0 0 0 0 0 0 0 0
0 0 0 0 0 0 0 0 0 0 0 0 0 0 0 0 0 0 0 0 0 0 0 0 0 0 0 0 0 0 0 0 0 0 0 0 0 0 0 0 0 0 0 0 0
0 0 0 0 0 0 0 0 0 0 0 0 0 0 0 0 0 0 0 1 0 0 0 0 0 0 0 0 0 0 0 0 0 0 0 0 0 0 0 0 0 0 0 0 0
CIN
-0 -0 -0 -0 -0 -0 -0 -0 -0 -0 -0 -1 -0 -0 -0 -0 -0 -0 -0 -0 -0 -0 -0 -0 -0 -0 -0 -0 -1 -3 -0 -0 -1 -0 -0 -0 -0 -0 -0 -0 -0 -66 -62 -72 -157
-0 -0 -0 -0 -0 -0 -0 -0 -0 -0 -0 -0 -0 -0 -0 -0 -0 -0 -0 -0 -0 -0 -0 -0 -0 -0 -0 -0 -0 -0 -1 -0 -1 -3 -1 -2 -0 -0 -0 -0 -0 -1 -35 -120 -108
-0 -0 -0 -0 -0 -0 -0 -0 -0 -0 -0 -0 -0 -0 -0 -0 -0 -0 -2 -0 -0 -0 -0 -0 -0 -0 -0 -0 -0 -0 -0 -0 -19 -4 -0 -38 -0 -0 -0 -0 -0 -0 -4 -35 -45
-0 -1 -0 -0 -0 -0 -0 -0 -0 -0 -0 -0 -0 -0 -0 -0 -0 -0 -0 -0 -1 -0 -0 -0 -0 -0 -0 -0 -0 -0 -0 -5 -1 -0 -0 -0 -0 -0 -0 -0 -0 -0 -0 -60 -0
-4 -1 -3 -1 -0 -0 -0 -0 -0 -0 -0 -0 -0 -0 -0 -0 -0 -0 -0 -0 -0 -0 -0 -0 -0 -0 -0 -0 -0 -0 -0 -0 -0 -0 -0 -0 -0 -0 -0 -0 -0 -0 -0 -0 -35
-1 -3 -1 -1 -0 -0 -0 -0 -0 -0 -0 -0 -0 -0 -0 -0 -0 -0 -0 -0 -0 -0 -0 -0 -0 -0 -0 -0 -0 -0 -0 -0 -0 -0 -0 -0 -0 -0 -0 -0 -0 -0 -0 -0 -0
-1 -3 -0 -0 -2 -0 -0 -0 -0 -6 -0 -0 -0 -0 -0 -0 -0 -0 -0 -0 -0 -0 -0 -0 -0 -0 -0 -0 -0 -0 -0 -0 -0 -0 -0 -0 -0 -0 -0 -0 -0 -0 -0 -0 -0
-0 -0 -2 -0 -2 -3 -1 -1 -6 -13 -2 -0 -0 -1 -0 -0 -0 -0 -0 -0 -0 -0 -0 -0 -0 -13 -5 -1 -0 -1 -1 -0 -0 -0 -0 -0 -0 -0 -0 -1 -0 -0 -41 -0 -0
-4 -7 -4 -6 -2 -2 -3 -6 -18 -19 -0 -0 -2 -5 -0 -0 -0 -0 -0 -0 -11 -0 -0 -0 -7 -1 -3 -0 -0 -0 -0 -0 -0 -0 -0 -0 -0 -0 -0 -0 -0 -0 -14 -0 -0
-4 -3 -4 -8 -9 -9 -7 -19 -0 -0 -0 -0 -0 -0 -0 -0 -0 -0 -0 -0 -0 -0 -0 -0 -0 -0 -0 -1 -0 -0 -0 -0 -0 -0 -0 -0 -0 -0 -0 -3 -8 -0 -0 -0 -0
-2 -2 -1 -8 -3 -1 -0 -0 -0 -0 -0 -0 -0 -0 -0 -0 -0 -0 -0 -0 -0 -0 -0 -0 -0 -0 -0 -0 -0 -0 -0 -0 -0 -0 -0 -0 -0 -0 -0 -0 -2 -0 -0 -0 -0
-0 -2 -2 -2 -0 -0 -0 -0 -0 -0 -0 -0 -0 -0 -0 -0 -0 -0 -0 -0 -0 -0 -0 -0 -0 -0 -0 -0 -0 -0 -0 -0 -0 -0 -0 -0 -0 -0 -0 -1 -5 -10 -0 -0 -0
-1 -2 -3 -1 -0 -0 -0 -0 -0 -0 -0 -0 -0 -0 -0 -0 -0 -0 -0 -0 -0 -0 -0 -0 -0 -0 -0 -0 -0 -0 -0 -0 -0 -0 -7 -0 -0 -0 -0 -0 -7 -17 -3 -0 -0
-0 -2 -1 -0 -0 -0 -0 -0 -0 -0 -0 -0 -0 -0 -0 -0 -0 -0 -0 -0 -0 -0 -0 -0 -0 -0 -0 -0 -0 -0 -0 -0 -0 -0 -1 -11 -0 -0 -0 -0 -1 -12 -0 -0 -0
-4 -2 -1 -0 -0 -0 -0 -0 -0 -0 -0 -0 -0 -0 -0 -0 -0 -0 -0 -1 -0 -0 -0 -0 -0 -0 -0 -0 -0 -0 -0 -0 -0 -0 -0 -36 -10 -55 -14 -0 -0 -0 -0 -0 -0
-0 -5 -0 -0 -0 -0 -0 -0 -0 -0 -0 -0 -0 -0 -0 -0 -0 -0 -0 -1 -2 -0 -0 -0 -0 -0 -0 -0 -0 -0 -1 -0 -0 -0 -2 -0 -15 -1 -0 -0 -6 -0 -0 -0 -0
-0 -4 -0 -0 -0 -0 -0 -0 -0 -0 -0 -0 -0 -0 -0 -0 -0 -0 -0 -0 -0 -0 -0 -0 -0 -1 -0 -0 -0 -0 -0 -0 -0 -0 -0 -13 -0 -0 -0 -0 -0 -0 -0 -0 -0
-0 -0 -0 -0 -0 -0 -0 -0 -0 -0 -0 -0 -0 -0 -0 -0 -0 -0 -0 -0 -0 -0 -0 -0 -0 -0 -0 -0 -0 -0 -0 -0 -42 -0 -0 -0 -0 -0 -0 -0 -0 -0 -0 -0 -0
-0 -0 -0 -0 -0 -0 -0 -0 -0 -0 -0 -0 -0 -0 -0 -0 -0 -0 -0 -0 -0 -0 -0 -0 -0 -0 -0 -0 -3 -0 -0 -0 -0 -0 -0 -0 -0 -0 -0 -0 -0 -0 -0 -0 -0
-0 -0 -0 -0 -0 -0 -0 -0 -0 -0 -1 -0 -0 -0 -0 -0 -0 -0 -0 -0 -0 -0 -0 -0 -0 -0 -0 -0 -0 -0 -0 -0 -0 -0 -0 -0 -0 -0 -0 -0 -0 -0 -0 -0 -0
-0 -0 -0 -0 -0 -0 -0 -0 -0 -0 -0 -0 -0 -0 -0 -0 -0 -0 -0 -0 -0 -0 -0 -0 -0 -0 -0 -0 -0 -0 -0 -0 -0 -0 -0 -0 -0 -0 -0 -0 -0 -0 -0 -0 -0
-0 -0 -0 -0 -0 -0 -0 -0 -0 -1 -1 -1 -2 -0 -0 -0 -0 -0 -0 -0 -0 -0 -0 -0 -0 -0 -0 -0 -0 -0 -0 -0 -0 -0 -0 -0 -0 -0 -0 -0 -0 -0 -0 -0 -0
-0 -0 -0 -0 -0 -0 -0 -0 -0 -0 -0 -0 -2 -4 -1 -0 -0 -0 -0 -0 -0 -0 -0 -0 -0 -0 -0 -0 -0 -0 -0 -0 -0 -0 -0 -0 -0 -0 -0 -0 -0 -0 -0 -0 -0
-0 -0 -0 -0 -0 -0 -0 -0 -0 -1 -0 -0 -0 -1 -1 -0 -0 -0 -0 -0 -0 -0 -0 -0 -0 -0 -0 -0 -0 -0 -0 -0 -0 -0 -0 -0 -0 -0 -0 -0 -0 -0 -0 -0 -0
-0 -0 -0 -0 -0 -0 -0 -0 -0 -0 -0 -0 -0 -2 -0 -0 -0 -0 -0 -0 -0 -0 -0 -0 -0 -0 -0 -0 -0 -0 -0 -0 -0 -0 -0 -0 -0 -0 -0 -0 -0 -0 -0 -0 -0
-0 -0 -0 -0 -0 -0 -0 -0 -0 -0 -0 -0 -0 -0 -0 -0 -0 -0 -0 -0 -0 -0 -0 -0 -0 -0 -0 -0 -0 -0 -0 -0 -0 -0 -0 -0 -0 -0 -0 -0 -0 -0 -0 -0 -0
-0 -0 -0 -0 -0 -0 -0 -0 -0 -0 -0 -0 -0 -0 -0 -0 -0 -0 -0 -0 -0 -0 -0 -0 -0 -0 -0 -0 -0 -0 -0 -0 -0 -0 -0 -0 -0 -0 -0 -0 -0 -0 -0 -0 -0
Wind_Speed
22 22 22 23 24 25 26 27 28 28 29 30 30 31 32 33 35 33 33 24 23 21 24 26 27 28 27 30 29 27 43 55 53 50 45 33 38 33 32 38 34 29 28 28 12
23 23 23 24 24 25 26 27 29 29 29 30 31 32 34 34 37 39 25 21 19 20 23 27 30 29 31 30 32 36 49 54 43 39 43 41 44 37 36 37 38 34 28 23 12
21 21 21 23 22 24 26 28 29 30 29 29 29 29 30 31 35 22 17 21 21 22 24 26 26 28 34 32 34 39 56 49 45 40 37 40 41 38 40 44 35 34 32 23 14
20 17 19 22 24 25 27 27 26 26 26 27 26 29 30 27 35 21 19 20 25 25 26 28 28 33 37 39 36 49 49 46 46 44 42 38 38 40 41 42 33 31 29 28 23
18 16 19 22 22 22 23 24 25 26 26 27 27 28 28 27 27 23 25 27 31 30 32 32 34 34 40 39 41 49 48 47 46 50 46 46 46 42 50 43 40 42 38 34 37
17 19 18 20 21 20 22 23 23 24 25 26 27 26 27 31 23 23 24 26 26 26 27 26 30 30 39 40 44 41 42 47 46 49 49 50 51 44 43 37 38 37 43 37 39
16 16 17 18 18 20 20 22 24 25 25 26 25 26 26 27 24 24 24 25 25 24 26 22 22 27 30 40 42 45 55 52 50 47 47 42 57 62 45 48 41 41 40 36 38
14 15 16 17 18 19 21 23 25 25 26 26 24 23 27 23 24 22 20 22 19 20 7 10 7 15 25 31 37 41 46 59 49 46 44 41 68 57 39 46 49 42 42 40 36
14 15 15 16 18 19 22 24 25 27 27 22 21 20 28 23 22 20 16 23 21 20 15 11 6 8 11 27 40 43 55 53 51 44 43 48 62 55 50 48 50 47 43 44 37
13 16 17 20 21 22 22 23 24 24 22 18 18 22 21 24 21 25 20 18 30 11 12 8 5 8 10 20 39 41 47 53 55 44 46 54 60 48 43 42 46 46 44 41 40
18 18 19 22 22 21 23 24 25 24 21 21 22 22 24 21 30 25 20 23 15 13 8 6 8 14 16 16 23 32 40 47 47 48 48 52 59 57 52 45 46 44 44 43 35
17 18 19 19 19 19 21 24 22 23 28 23 17 16 17 19 26 29 20 22 15 9 8 9 17 19 11 13 16 31 37 46 46 45 44 51 55 50 51 50 48 45 43 39 35
15 16 17 17 17 19 21 20 20 21 25 21 16 18 19 21 28 30 17 23 11 5 5 9 16 9 13 14 17 19 36 44 45 37 45 44 54 54 50 46 42 43 42 38 36
15 17 17 15 18 18 21 20 21 21 27 23 19 18 21 27 25 23 16 18 18 6 7 7 10 11 8 18 19 38 36 41 41 39 46 42 53 53 50 46 43 39 38 37 34
14 16 15 16 18 20 19 20 19 21 34 26 20 20 33 21 28 19 18 15 4 7 12 7 6 7 15 22 29 30 35 43 38 41 39 37 45 44 42 47 40 36 33 35 32
16 16 17 19 19 18 19 20 21 27 30 25 22 26 29 23 23 25 24 13 13 10 3 11 5 19 26 27 31 29 28 36 35 36 40 42 46 41 43 44 40 35 32 31 28
19 19 19 19 19 18 18 21 28 30 25 25 25 27 25 23 22 23 25 24 22 18 13 9 17 19 21 26 31 33 30 23 29 30 36 33 41 32 36 37 34 33 31 31 25
20 21 23 21 18 18 20 24 31 25 23 21 23 27 19 20 20 22 22 20 16 15 12 11 12 18 23 25 23 31 32 23 22 31 26 26 29 25 27 23 27 26 27 25 21
19 21 21 23 19 19 22 28 27 24 21 22 22 21 18 19 19 20 17 15 15 16 12 13 13 15 20 23 23 25 29 26 18 23 18 28 20 16 19 23 25 25 25 24 22
18 19 21 21 19 21 25 26 23 19 20 19 20 20 19 19 18 17 17 13 15 15 15 15 13 9 14 17 13 20 17 20 21 25 19 20 22 21 20 25 23 25 23 22 19
18 20 19 20 21 25 26 24 21 16 17 17 18 17 18 18 18 15 13 15 16 16 15 13 12 11 11 7 11 11 14 15 13 14 21 28 22 18 18 21 23 21 21 18 17
18 21 19 19 24 24 25 23 19 19 15 15 14 19 18 18 17 15 15 14 16 19 15 12 12 5 5 8 8 7 9 10 14 10 14 23 21 11 11 14 16 20 19 20 16
18 19 19 19 25 25 23 23 21 21 16 16 14 17 18 17 16 15 13 10 13 16 12 13 10 11 7 7 7 4 5 5 2 8 7 21 21 10 8 8 10 14 18 21 18
17 20 21 22 22 24 24 25 25 19 17 16 12 17 17 16 16 15 14 11 13 13 10 9 5 3 4 4 7 4 10 6 6 7 5 7 9 6 8 6 8 10 14 15 18
18 18 18 22 24 23 22 24 25 23 17 16 15 15 15 15 15 14 13 11 10 13 8 6 4 6 10 9 12 18 13 11 5 6 4 6 7 5 3 2 3 5 6 9 12
16 17 19 22 22 23 24 24 23 21 18 15 16 16 15 15 14 14 13 10 10 11 10 8 6 6 9 10 19 16 16 12 14 10 6 4 4 4 2 4 3 3 3 5 7
15 17 19 20 20 23 24 24 23 21 20 16 14 15 14 13 13 14 14 14 13 12 11 10 8 7 6 10 9 11 11 10 7 6 3 2 6 3 1 3 3 4 5 5 5
Wind_Direction
354 353 352 351 349 348 345 342 341 341 339 336 336 335 333 330 326 324 316 316 316 316 314 310 302 299 294 279 273 271 259 256 256 258 259 265 260 261 264 262 264 269 273 275 254
350 351 349 347 346 345 344 343 340 338 337 335 333 332 329 330 323 318 324 326 324 321 312 306 297 295 285 281 272 260 257 257 262 266 264 263 258 260 261 261 258 265 271 276 239
348 350 350 349 348 345 343 340 338 338 336 334 335 335 334 335 327 327 343 350 347 332 313 305 302 294 282 278 271 264 257 259 264 266 273 266 261 256 255 254 253 258 264 265 242
354 358 353 350 345 342 340 340 341 342 341 338 337 335 335 336 320 332 326 331 332 326 318 309 300 288 281 274 271 264 262 263 263 266 267 268 263 259 254 253 254 255 261 263 249
357 357 352 348 346 345 346 343 342 341 340 338 335 334 335 327 319 323 317 315 316 315 305 298 291 287 279 277 272 265 264 264 264 261 265 265 260 259 254 255 251 252 254 261 249
357 355 354 349 349 347 343 343 342 340 338 336 334 333 328 316 329 328 323 319 315 314 310 305 296 287 280 276 269 269 268 265 264 260 260 259 256 258 250 255 250 251 247 257 250
357 354 350 348 348 345 344 342 340 337 336 334 332 330 321 311 325 323 324 319 316 311 306 309 307 290 286 275 271 268 262 262 260 259 257 257 251 244 251 250 250 248 246 253 253
355 356 355 353 349 346 344 339 337 335 333 330 331 329 319 330 330 325 329 326 324 316 318 321 293 305 287 282 273 265 261 253 255 255 253 249 243 243 254 245 244 249 245 248 257
356 352 351 347 345 342 340 339 337 334 331 333 333 332 324 339 333 336 332 319 320 320 323 327 315 261 308 281 270 261 254 251 252 252 252 242 244 246 249 247 241 243 244 244 255
344 347 349 349 348 346 345 343 340 344 353 359 349 338 334 338 341 327 330 331 303 332 327 305 295 279 258 277 268 259 253 250 248 248 247 244 242 245 247 243 239 241 242 245 250
351 352 350 349 350 353 354 355 352 349 349 337 332 330 332 340 315 317 334 327 339 342 329 294 268 248 242 233 277 270 257 251 249 246 248 246 241 240 241 246 237 238 237 241 248
348 350 351 352 357 3 3 358 359 354 343 340 338 337 336 343 331 289 335 323 340 331 332 322 249 236 253 250 253 268 259 250 249 247 247 243 239 240 240 242 237 236 235 237 243
359 2 1 5 12 8 6 6 8 3 349 351 357 353 355 345 315 285 341 323 350 302 278 254 254 244 226 234 227 243 256 247 244 247 246 240 239 235 237 237 235 236 235 234 238
9 9 11 23 12 14 8 10 8 9 352 355 4 2 354 324 307 320 340 344 347 341 326 294 251 221 210 204 196 213 206 244 240 241 235 229 230 229 229 229 231 231 230 230 238
18 18 31 24 19 11 15 12 14 11 349 0 6 357 322 331 299 313 344 3 350 275 348 314 349 162 177 189 185 202 205 219 230 228 231 227 226 226 223 224 225 223 226 225 233
30 39 36 25 22 23 19 17 13 2 354 3 5 356 332 301 316 302 319 9 4 251 199 242 86 165 195 188 185 181 177 185 215 228 234 227 220 224 219 221 222 222 224 227 230
41 36 30 28 22 25 25 15 4 2 8 5 6 357 300 289 287 306 305 298 294 279 265 229 180 200 188 178 180 184 173 209 222 226 227 224 217 233 231 224 217 218 223 226 236
41 37 32 30 31 32 23 13 5 9 10 14 12 317 299 302 287 290 296 291 281 278 252 216 212 202 182 176 183 172 181 194 228 215 218 211 218 233 225 215 213 217 219 224 229
40 34 32 26 34 33 22 11 11 15 17 13 16 12 278 296 295 294 272 266 274 284 252 233 220 239 206 205 183 178 185 205 235 209 223 215 217 238 223 214 211 216 220 228 235
34 34 30 30 38 31 21 17 18 26 23 25 22 358 286 283 286 288 284 242 284 278 265 230 232 250 224 220 254 212 229 215 218 217 219 204 212 229 217 209 213 215 220 227 232
33 28 37 39 38 28 20 21 22 30 27 28 27 307 261 272 277 267 255 266 292 285 269 219 232 277 226 266 217 249 254 238 233 224 219 203 210 237 215 213 215 218 220 227 231
36 25 38 45 26 29 24 26 28 25 35 36 41 266 259 272 262 253 268 264 290 297 275 227 225 247 233 228 228 250 253 257 225 230 210 205 213 244 228 222 220 224 224 226 234
38 39 46 46 23 26 32 30 31 31 43 43 17 272 275 265 259 254 254 239 285 307 285 262 239 227 239 279 288 277 266 254 249 209 223 211 215 253 242 235 241 236 233 236 244
44 33 37 42 41 36 36 33 34 50 55 60 213 269 275 267 276 254 266 250 288 308 290 304 277 261 344 293 272 280 342 289 252 214 164 168 188 227 227 242 258 259 246 245 246
43 41 45 34 35 43 42 37 37 40 55 56 263 276 271 264 271 271 270 262 274 320 310 322 357 24 22 1 15 24 15 14 32 208 198 171 166 188 212 247 272 275 267 254 256
48 51 51 46 50 45 41 41 41 46 52 67 276 260 265 266 270 270 276 285 300 291 304 296 323 317 13 356 24 26 20 24 38 44 87 104 65 218 38 29 10 330 316 280 278
59 66 57 49 53 47 47 50 51 56 67 93 253 255 255 260 248 242 257 254 254 279 286 303 291 311 321 317 351 7 348 351 346 337 300 117 193 220 43 13 333 296 292 317 309